Regional Weather Roundup
Issued by NWS Little Rock, AR

Home | Current Version | Previous Version | Graphics & Text | Print | Product List | Glossary On
Versions: 1 2 3 4 5 6 7 8 9 10 11 12 13 14 15 16 17 18 19 20 21 22 23 24 25 26 27 28 29 30 31 32 33 34 35 36 37 38 39 40 41 42 43 44 45 46 47 48 49 50
000
ASUS44 KLZK 190605
RWRLZK

WEATHER ROUNDUP FOR ARKANSAS
NATIONAL WEATHER SERVICE LITTLE ROCK AR
100 AM CDT FRI SEP 19 2014

NOTE: "FAIR" INDICATES FEW OR NO CLOUDS BELOW 12,000 FEET WITH NO
SIGNIFICANT WEATHER AND/OR OBSTRUCTIONS TO VISIBILITY.

ARZ001-003-010-029-190700-
NORTHWEST ARKANSAS

CITY           SKY/WX    TMP DP  RH WIND       PRES   REMARKS
FAYETTEVILLE   PTCLDY    64  64 100 E6        30.02F
6HR MIN TEMP:  64; 6HR MAX TEMP:  74;

FORT SMITH     CLEAR     69  66  90 E7        29.98F
6HR MIN TEMP:  69; 6HR MAX TEMP:  79;

HARRISON       CLOUDY    64  63  96 SE6       30.06S FOG
6HR MIN TEMP:  64; 6HR MAX TEMP:  67;

BENTONVILLE    MOCLDY    64  61  88 E12       30.04S
6HR MIN TEMP:  64; 6HR MAX TEMP:  73;

ROGERS         CLOUDY    65  61  87 E9        30.04F
6HR MIN TEMP:  64; 6HR MAX TEMP:  72;

SILOAM SPGS    PTCLDY    64  57  77 CALM      30.03F
6HR MIN TEMP:  64; 6HR MAX TEMP:  75;

HIGHFILL       CLOUDY    65  63  93 E7        30.02F
6HR MIN TEMP:  64; 6HR MAX TEMP:  73;

$$

ARZ004-005-016-190700-
NORTH CENTRAL ARKANSAS

CITY           SKY/WX    TMP DP  RH WIND       PRES   REMARKS
BATESVILLE     CLOUDY    64  63  94 CALM      30.03S
6HR MIN TEMP:  63; 6HR MAX TEMP:  70;

FLIPPIN        CLOUDY    64  61  88 CALM      30.04S
6HR MIN TEMP:  64; 6HR MAX TEMP:  64;

MTN HOME       PTCLDY    61  61 100 CALM      30.04S FOG
6HR MIN TEMP:  60; 6HR MAX TEMP:  66;

$$

ARZ040-041-190700-
WEST CENTRAL ARKANSAS

CITY           SKY/WX    TMP DP  RH WIND       PRES   REMARKS
MENA           CLOUDY    72  70  94 CALM      30.00F
MOUNT IDA      CLOUDY    72  68  87 CALM      29.98S
6HR MIN TEMP:  71; 6HR MAX TEMP:  75;

$$

ARZ009-017-025-026-028-190700-
NORTHEAST ARKANSAS

CITY           SKY/WX    TMP DP  RH WIND       PRES   REMARKS
CORNING          N/A     63  61  94 NE6       30.04S FOG
JONESBORO      CLEAR     65  62  90 NE6       30.01F
6HR MIN TEMP:  64; 6HR MAX TEMP:  70;

NEWPORT        CLOUDY    65  64  96 N3        30.03S
6HR MIN TEMP:  64; 6HR MAX TEMP:  69;

WALNUT RIDGE   PTCLDY    63  61  94 NE7       30.02S
6HR MIN TEMP:  63; 6HR MAX TEMP:  70;

BLYTHEVILLE    MOCLDY    64  62  93 NE5       30.02S
6HR MIN TEMP:  63; 6HR MAX TEMP:  70;

$$

ARZ022-023-033-042-044-190700-
CENTRAL ARKANSAS

CITY           SKY/WX    TMP DP  RH WIND       PRES   REMARKS
LITTLE ROCK    CLOUDY    70  63  78 NE5       30.00F
6HR MIN TEMP:  70; 6HR MAX TEMP:  76;

N LITTLE ROCK    N/A     68  65  92 NE7       30.00F
6HR MIN TEMP:  68; 6HR MAX TEMP:  74;

JACKSONVILLE   CLOUDY    68  64  85 NE3       30.01S
6HR MIN TEMP:  68; 6HR MAX TEMP:  75;

SEARCY         CLOUDY    69  63  81 NE7       30.02S
6HR MIN TEMP:  69; 6HR MAX TEMP:  73;

HOT SPRINGS    CLEAR     71  65  81 E10       29.99F
6HR MIN TEMP:  70; 6HR MAX TEMP:  78;

RUSSELLVILLE   CLOUDY    69  64  84 CALM      30.01S
6HR MIN TEMP:  68; 6HR MAX TEMP:  76;

CLINTON        CLOUDY    66  66 100 CALM      30.03F FOG
$$

ARZ036-190700-
EAST ARKANSAS

CITY           SKY/WX    TMP DP  RH WIND       PRES   REMARKS
WEST MEMPHIS   MOCLDY    69  66  90 NE6       29.99S
6HR MIN TEMP:  69; 6HR MAX TEMP:  74;

$$

ARZ050-053-066-070-073-190700-
SOUTHWEST ARKANSAS

CITY           SKY/WX    TMP DP  RH WIND       PRES   REMARKS
ARKADELPHIA    FAIR      71  69  93 NE5       29.98S
6HR MIN TEMP:  71; 6HR MAX TEMP:  76;

CAMDEN         CLEAR     68  66  94 CALM      29.96F
TEXARKANA      MOCLDY    72  72 100 CALM      29.96R
6HR MIN TEMP:  72; 6HR MAX TEMP:  79;

EL DORADO      MOCLDY    72  71  97 NE6       29.95F
6HR MIN TEMP:  72; 6HR MAX TEMP:  80; 6HR PCP: TRACE;

DE QUEEN       PTCLDY    72  70  93 E6        29.94F FOG
6HR MIN TEMP:  72; 6HR MAX TEMP:  79;

$$

ARZ056-057-069-190700-
SOUTHEAST ARKANSAS

CITY           SKY/WX    TMP DP  RH WIND       PRES   REMARKS
PINE BLUFF     CLEAR     69  67  93 N8        29.98F
6HR MIN TEMP:  67; 6HR MAX TEMP:  76;

STUTTGART      CLEAR     66  63  88 N5        30.00S
6HR MIN TEMP:  66; 6HR MAX TEMP:  73;

MONTICELLO     PTCLDY    69  67  93 CALM      29.96F FOG
6HR MIN TEMP:  69; 6HR MAX TEMP:  77;


$$





USA.gov is the U.S. government's official web portal to all federal, state and local government web resources and services.